Location: Newark
(43.0847°N, 2.6989°E)
Time: 20:18:22
(UTC+00:00)

Envisat - Visible Passes

Search period start: 26 January 2020 00:00
Search period end: 05 February 2020 00:00
Orbit: 764 x 766 km, 98.1° (Epoch: 26 January)

Date Brightness Start Highest point End Pass type
(mag) Time Alt. Az. Time Alt. Az. Time Alt. Az.
26 Jan 5.4 05:37:48 10° NE 05:41:58 25° E 05:46:06 10° SSE visible
26 Jan 5.1 18:32:26 10° SSW 18:36:46 28° W 18:41:08 10° NW visible
27 Jan 6.4 05:03:23 10° ENE 05:04:46 11° E 05:06:10 10° ESE visible
27 Jan 3.6 17:54:48 10° S 17:59:49 62° W 18:04:52 10° NNW visible
28 Jan 4.4 06:02:46 10° NNE 06:07:37 43° E 06:12:25 10° S visible
28 Jan 3.0 17:18:04 10° SSE 17:23:04 62° ENE 17:28:05 10° N visible
28 Jan 6.0 18:59:22 10° SW 19:02:30 16° W 19:05:39 10° NW visible
29 Jan 5.8 05:26:53 10° NE 05:30:34 20° E 05:34:14 10° SE visible
29 Jan 4.7 18:20:47 10° SSW 18:25:24 35° W 18:30:04 10° NNW visible
30 Jan 3.3 06:28:03 10° NNE 06:33:10 75° ESE 06:38:14 10° S visible
30 Jan 3.2 17:43:27 10° S 17:48:30 78° WSW 17:53:37 10° NNW visible
31 Jan 4.9 05:51:39 10° NNE 05:56:16 34° E 06:00:51 10° SSE visible
31 Jan 5.7 18:47:21 10° SW 18:51:06 21° W 18:54:52 10° NW visible
01 Feb 6.1 05:16:08 10° NE 05:19:09 16° E 05:22:11 10° SE visible
01 Feb 4.3 18:09:14 10° S 18:14:04 44° W 18:18:56 10° NNW visible
02 Feb 3.7 06:16:49 10° NNE 06:21:51 59° E 06:26:51 10° S visible
02 Feb 3.0 17:32:09 10° SSE 17:37:13 84° ENE 17:42:20 10° NNW visible
02 Feb 6.4 19:15:12 10° WSW 19:16:53 12° W 19:18:35 10° WNW visible
03 Feb 5.3 05:40:35 10° NE 05:44:53 27° E 05:49:10 10° SSE visible
03 Feb 5.3 18:35:31 10° SSW 18:39:42 26° W 18:43:56 10° NW visible
04 Feb 6.3 05:05:42 10° ENE 05:07:44 12° E 05:09:45 10° ESE visible
04 Feb 3.8 17:57:45 10° S 18:02:43 56° W 18:07:44 10° NNW visible
